CZ-3C DEB, 39600

Orbit data source: Space-Track

CZ-3C DEB, 39600 is space debris in HEO originally from a launch on Sun, 31 Oct 2010 UTC launched from the Xichang Space Center, China (XSC). Debris objects in space refer to the collection of defunct objects orbiting the Earth. Examples of debris include non-operational satellites, rocket bodies, and fragments generated from explosions, collisions, or faulty payload assembly.

Loading next visibility...
Identifier
39600, 2010-057X
Orbit
HEO
Country
Flag of CNCN / PRC
Related business
Manufacturer
CALT
Mission
Spacecraft
Bus & Motor
Unknown
Mass
Unknown
Launch date (UTC)
2010-10-31 (15 years ago)
Launch vehicle
Unknown
Launch site
Xichang Space Center, China (XSC)
Object type
Payload
Rocket body
Debris
Shape & HBR
Unknown shape, 0.3 m
Radar Cross Section
Small (<0.1 m²)

Expand to show TLE details & history
Last TLE update: 5 days ago

TLE from 5 days ago
0 CZ-3C DEB
1 39600U 10057X   25296.37222585  .00000107  00000-0  77189-3 0  9992
2 39600  20.2618  58.6807 7223876 243.0334  28.5905  2.25230261 97904
Epoch: 2025-10-23T08:56Z
TLE epoch observation values (Epoch: 2025-10-23T08:56:00.313Z)
Latitude
0.00031°
Longitude
-107.47741°
Altitude
11,127.947 km
Speed
5.415 km/s
True Right ascension
03h 54m 13s
True Declination
0° 00' 01"
Sunlit
Object was in daylight at epoch
Visualization orbit readout
Latitude
Unknown
Longitude
Unknown
Altitude
Unknown
Speed
Unknown
Apparent Right ascension
Unknown
Apparent Declination
Unknown
Sunlit
N/A
Visualization observer readout
Local Sidereal Time
09:00:05
Azimuth
Unknown
Elevation
Unknown
Doppler factor
Unknown
Orbital elements
Apogee altitude
35,972.538 km
Perigee altitude
447.895 km
Semi-major axis
24,588.354 km
Eccentricity
0.72239
Inclination
20.2618°
RAAN
58.6807°
Arg. of periapsis
243.0334°
True anomaly
117.10259°
Mean anomaly
28.5905°
Eccentric anomaly
66.56654°
Mean motion
0.56292 °/min
Orbital period
639.52 mins
BSTAR
0.00077189
Loading maneuver chart data...
Computing Atmospheric mass density...
Loading historical data...
Loading historical data...
Loading historical data...
Loading historical data...
Loading historical data...
Loading historical data...
Loading historical data...

Documentation

Showing up to 5 results
|